Temp
25 27 28 28 28 27 28 27 26 24 23 24 23 23 22 21 21 22 25 27 27 27 27 26 25 24 23 23 22 22 21 21 20 20 21 21 22 22 22 23 23 23 24 24
26 27 27 27 27 27 27 27 25 25 23 24 23 24 22 22 23 25 25 27 27 28 27 26 25 24 24 23 23 22 21 22 22 22 22 22 22 22 22 22 23 23 24 24
27 28 27 28 27 27 27 27 27 27 24 23 23 25 23 22 21 23 25 26 27 28 27 27 25 25 24 24 23 22 21 22 23 22 23 23 23 23 23 23 22 23 23 23
28 27 27 28 28 29 28 27 27 25 26 26 25 24 24 24 23 22 25 26 27 27 27 28 26 25 24 24 23 22 22 23 23 23 23 23 24 24 23 23 23 22 23 23
27 27 27 28 29 28 28 27 26 26 26 25 23 24 26 24 24 23 23 25 27 27 28 27 26 26 25 24 23 23 22 23 22 24 23 23 24 24 23 23 23 23 23 23
28 27 28 29 27 29 27 26 25 25 25 25 26 26 28 23 25 26 25 26 27 27 28 28 27 26 25 24 23 23 22 22 23 23 24 24 24 23 23 23 23 23 23 23
27 27 27 27 27 27 28 28 26 25 25 26 25 24 28 27 27 28 26 26 27 27 28 27 26 26 25 24 24 23 22 22 21 22 22 23 24 24 24 24 23 23 23 23
27 27 27 27 29 28 28 29 28 26 26 27 24 26 28 27 27 28 27 27 26 27 28 27 26 26 25 24 24 23 22 22 22 22 22 22 24 23 23 23 23 23 23 24
26 28 26 27 27 28 26 27 27 26 25 26 27 27 27 27 26 26 26 26 26 26 27 27 27 26 25 25 24 24 23 22 22 22 22 23 23 24 23 24 24 23 24 23
27 27 27 27 27 26 28 28 27 26 26 27 28 27 27 25 24 25 26 26 26 25 26 27 27 26 26 25 25 24 23 23 23 22 22 22 22 24 23 23 24 23 24 24
27 27 27 27 27 28 26 27 27 27 27 27 28 28 25 23 23 24 26 26 26 24 25 25 26 26 25 25 25 24 23 23 23 22 22 22 22 22 24 23 23 24 24 24
25 27 28 28 27 26 27 27 29 29 28 26 27 28 24 23 24 25 26 27 27 26 25 24 24 25 25 25 24 23 24 23 23 23 22 22 22 22 22 22 23 23 23 23
26 26 27 27 28 27 26 25 25 27 26 27 28 29 25 23 24 24 25 26 27 27 26 24 22 23 23 24 24 23 23 23 23 23 22 22 22 22 22 22 22 23 23 23
25 25 25 27 26 25 26 25 24 27 29 27 26 26 25 22 21 22 23 24 25 25 24 21 21 21 21 23 23 23 23 23 22 22 22 22 22 22 22 22 22 22 23 23
26 25 24 24 24 25 24 25 26 26 25 27 24 24 23 21 20 20 21 23 25 23 21 20 20 19 19 20 22 22 22 22 22 22 22 22 22 22 22 21 23 23 23 23
24 24 24 24 24 24 25 24 24 24 24 24 24 24 21 20 20 20 20 20 24 23 20 19 19 18 18 19 20 21 21 22 22 21 22 22 22 22 22 22 22 21 22 22
24 24 24 24 23 25 25 23 24 24 23 24 25 23 22 21 20 19 18 18 19 22 21 20 20 19 18 18 20 22 21 21 21 21 21 21 21 22 21 21 21 21 21 22
23 23 23 24 23 24 23 23 23 23 23 23 23 23 20 19 19 18 17 17 17 17 17 17 17 18 19 19 20 20 21 20 21 21 20 20 20 21 21 20 21 20 20 20
22 23 23 24 23 22 23 23 24 24 24 23 23 22 22 21 20 19 16 16 16 15 15 14 15 15 17 18 19 19 19 20 19 19 19 19 19 19 19 19 19 19 19 19
22 21 25 22 24 23 24 22 23 23 24 23 23 23 22 21 23 20 15 16 16 15 14 14 14 15 15 17 19 19 19 18 19 18 19 19 19 20 19 19 18 18 19 18
23 22 23 23 23 23 22 22 22 23 24 23 23 22 21 21 20 17 16 17 16 15 14 14 14 14 14 16 17 18 18 18 19 18 18 19 19 20 19 18 17 17 17 16
23 23 23 21 22 23 22 21 23 23 21 23 22 20 19 17 16 16 16 16 16 15 15 14 13 13 14 15 17 17 18 17 17 18 18 18 17 16 16 17 16 16 15 14
22 23 24 23 24 20 21 22 22 22 23 22 21 20 20 19 18 16 16 17 16 15 14 14 13 13 13 14 15 16 15 16 17 17 16 16 16 17 16 16 15 14 14 14
20 19 23 21 20 21 21 22 22 22 23 22 21 20 20 20 18 17 16 16 16 15 15 14 13 13 13 13 14 14 15 15 16 15 16 15 15 15 14 14 14 14 13 12
22 20 21 22 20 20 21 22 22 21 21 21 20 20 20 19 17 17 16 16 15 15 14 14 13 13 12 13 13 14 14 14 14 13 13 13 12 13 13 12 12 12 11 11
21 22 23 24 24 24 24 23 22 22 21 21 20 19 18 18 18 16 16 15 15 15 14 14 14 13 12 12 13 13 13 14 14 12 12 12 12 12 11 11 11 11 11 11
Height
790 791 793 792 790 793 794 801 806 813 811 813 816 817 817 817 818 815 810 807 809 808 813 820 824 828 832 836 839 843 846 849 851 854 857 859 861 863 865 866 868 870 871 871
795 795 789 790 794 795 796 804 810 808 811 811 815 813 815 814 809 806 807 805 804 808 811 818 823 826 829 833 838 841 844 847 850 853 855 857 860 862 865 867 868 869 870 871
793 788 786 788 795 799 801 801 803 804 808 812 814 812 813 810 810 807 804 802 801 804 806 812 819 823 828 831 835 840 843 846 849 851 854 857 860 863 864 866 867 868 870 871
788 784 789 791 793 790 803 792 798 807 808 817 806 829 811 803 806 806 798 798 798 800 802 808 814 820 824 828 833 838 841 845 848 850 853 855 858 860 863 864 867 868 869 871
790 788 791 793 788 787 795 790 799 802 809 813 818 821 800 800 803 800 796 794 792 794 798 802 808 814 820 826 831 836 840 844 847 849 851 854 857 860 862 863 865 867 868 871
781 779 781 780 783 781 789 799 806 807 810 820 803 809 791 803 788 786 786 786 786 789 794 798 806 813 819 824 829 834 837 841 845 847 850 852 855 857 860 862 864 866 868 870
785 783 779 778 790 789 788 798 823 830 825 816 807 816 785 777 775 771 774 779 781 784 789 796 804 810 815 820 824 830 834 838 843 846 849 851 853 855 857 860 862 863 865 868
793 799 781 776 777 786 790 788 807 829 820 808 810 807 783 772 763 761 765 770 779 782 784 791 798 804 810 816 821 826 830 835 839 843 847 849 851 854 856 857 859 861 863 864
794 788 776 773 775 776 794 800 794 808 809 809 795 788 773 766 768 768 768 772 776 779 780 786 794 800 805 811 816 820 826 832 836 840 843 847 849 851 853 855 857 858 859 861
780 789 776 776 773 779 778 779 804 806 825 818 795 794 791 783 781 774 771 771 772 779 780 783 789 796 801 806 812 818 823 827 832 837 841 844 847 849 851 852 853 855 856 857
776 783 787 778 781 780 791 787 790 798 801 806 804 793 786 789 782 777 769 769 771 777 779 781 786 791 797 803 810 814 819 824 829 833 837 841 844 846 848 849 851 852 853 854
779 779 786 785 779 777 777 783 778 788 799 799 797 790 781 784 777 769 767 766 768 772 777 782 787 791 795 800 806 810 815 821 824 829 833 836 840 842 845 846 848 850 851 852
776 785 794 791 782 779 787 788 789 785 789 797 796 789 779 781 778 774 771 768 766 769 774 781 786 790 794 797 803 807 811 816 821 825 829 832 835 838 840 843 845 847 848 850
776 789 796 793 794 791 792 789 790 782 783 791 795 792 785 788 788 781 776 770 767 770 775 781 785 788 793 798 800 805 808 812 815 820 824 827 829 833 836 839 841 844 845 847
777 793 795 794 790 786 793 787 787 788 790 789 797 795 794 795 792 787 782 775 770 775 781 784 787 791 797 799 800 804 806 810 812 816 819 820 824 828 831 834 837 839 841 843
782 797 794 799 792 792 793 785 792 790 791 791 793 794 793 792 789 788 786 782 775 775 779 782 786 788 793 796 799 803 803 805 808 812 815 816 819 822 825 828 832 835 837 839
786 792 798 803 800 795 800 798 796 794 793 791 792 793 792 795 794 794 792 790 786 780 782 782 785 789 792 794 796 796 796 800 803 806 810 814 815 816 819 823 827 830 833 835
790 796 798 800 804 816 800 793 792 794 793 791 792 791 798 799 797 798 796 796 794 792 791 789 790 791 790 788 788 792 794 797 799 802 805 808 810 813 815 818 821 825 828 830
789 791 802 802 807 807 798 793 794 793 793 789 791 792 793 793 795 797 800 799 799 798 795 794 792 790 791 790 789 789 791 794 797 799 801 803 805 807 810 814 815 820 823 826
792 794 791 807 806 812 793 791 788 789 799 788 789 791 793 794 795 796 801 799 799 798 797 795 795 793 790 788 788 789 790 794 792 798 799 801 802 802 803 807 809 810 818 822
796 798 798 801 801 796 791 790 790 804 799 787 787 791 793 795 799 803 803 801 800 800 799 797 795 793 791 789 788 790 791 791 794 801 800 799 800 801 802 805 810 812 811 818
793 797 799 807 806 807 788 794 798 789 789 787 789 794 797 801 804 803 803 803 802 801 801 799 797 794 792 791 791 791 793 796 798 796 793 795 799 800 800 800 805 802 813 814
796 788 788 792 790 790 787 787 786 786 785 788 789 794 794 797 799 803 805 803 803 803 800 800 798 794 793 791 791 791 793 793 794 796 795 798 802 802 805 805 808 810 809 812
789 792 787 792 790 788 787 786 786 787 786 788 790 793 794 796 799 802 804 804 805 805 804 803 801 799 796 794 792 793 793 795 797 800 801 803 803 805 806 809 809 810 812 817
781 788 786 786 788 788 785 783 784 787 788 790 792 793 795 796 799 801 803 805 806 806 806 805 805 804 802 799 798 798 798 797 800 801 804 806 807 807 809 811 812 814 817 819
777 775 777 776 768 770 772 775 780 783 786 789 790 794 796 797 798 801 804 806 806 807 808 808 807 807 806 805 803 802 803 803 803 804 806 808 809 809 812 813 814 816 820 822
Wind_Speed
2 6 12 8 5 2 4 5 6 4 4 4 2 5 7 8 9 15 15 17 16 17 16 15 16 16 16 16 15 16 15 14 15 13 11 9 10 9 8 9 10 7 5 4
5 11 5 3 4 3 3 6 5 4 7 3 4 6 5 6 8 14 13 15 18 14 13 17 19 18 18 18 17 15 15 18 19 14 13 9 9 9 8 8 9 9 8 6
9 5 7 6 7 8 4 3 6 1 6 2 3 4 6 5 5 8 9 9 11 17 17 16 21 21 20 20 19 17 16 20 21 17 16 11 10 9 9 9 7 9 9 6
5 4 8 6 8 9 6 7 6 7 3 1 2 3 6 11 13 12 15 13 12 15 17 16 21 22 23 22 19 17 18 20 21 20 15 15 12 9 10 10 10 8 9 7
4 8 8 7 8 9 2 8 7 4 2 2 4 3 3 10 14 18 19 17 16 14 17 18 23 25 23 22 22 20 19 21 18 20 18 15 13 10 10 10 9 8 11 8
3 1 4 3 2 12 12 7 3 3 2 3 2 5 5 9 21 20 20 24 20 15 18 20 22 21 21 20 22 21 22 22 21 20 19 19 16 13 10 11 11 10 9 9
2 4 3 4 6 8 7 8 2 3 3 2 3 5 9 6 10 18 24 25 21 17 18 17 17 22 23 23 24 23 23 23 23 21 19 21 19 17 16 14 13 12 12 11
3 6 11 9 8 8 14 13 5 4 3 1 4 5 1 11 13 10 16 24 17 19 18 18 22 26 26 26 25 24 24 23 23 22 22 21 20 16 15 15 13 13 12 11
4 2 4 10 6 8 6 7 2 0 2 3 2 4 6 11 10 5 12 19 20 17 19 20 23 27 25 25 26 26 25 24 23 23 24 22 20 19 16 16 14 12 14 12
0 1 2 6 5 3 7 12 4 2 4 5 2 3 3 16 14 8 10 17 18 13 16 17 21 26 26 26 25 24 25 25 24 23 21 20 20 19 17 17 17 15 13 14
1 2 3 7 6 7 5 6 3 1 5 2 3 2 5 12 13 11 12 14 17 11 15 15 20 27 27 25 23 24 24 24 23 23 21 19 17 17 18 18 16 16 14 14
0 0 3 2 2 1 1 1 8 7 5 1 3 1 7 10 10 9 7 11 14 17 16 12 18 23 24 25 24 23 22 23 24 22 21 21 19 17 16 17 17 16 16 15
2 2 1 2 3 3 2 2 1 2 1 4 5 1 7 11 11 11 5 6 10 14 16 11 12 15 19 25 24 23 23 23 21 21 21 21 20 20 19 18 16 16 16 16
0 3 3 7 1 2 3 4 1 5 4 2 2 3 9 13 13 12 9 5 7 9 11 8 9 11 15 20 21 20 21 22 22 22 22 23 23 23 21 20 18 16 16 14
1 2 2 4 2 5 3 6 3 1 4 2 4 2 5 8 9 10 9 6 8 12 9 7 6 3 2 5 11 14 20 19 21 23 24 26 25 23 21 20 21 19 19 18
2 3 2 3 7 5 3 9 2 3 3 3 1 1 2 4 6 10 11 10 5 12 12 10 7 4 8 13 15 15 21 21 25 23 26 25 23 24 25 24 21 19 19 18
2 4 2 4 2 6 3 3 1 0 0 2 2 4 4 5 7 7 10 11 9 1 10 11 10 8 12 18 25 22 20 18 22 23 23 23 23 28 22 21 19 18 17 17
3 4 0 2 1 4 3 1 2 1 1 2 4 4 3 1 3 7 10 10 10 8 9 6 6 3 7 12 17 20 21 19 23 26 22 22 21 20 18 19 19 17 14 14
2 3 3 3 3 3 2 5 5 4 2 0 2 3 1 2 5 2 8 9 9 7 7 8 7 8 10 13 13 14 14 14 17 19 21 19 19 19 18 17 16 15 13 11
6 5 2 2 4 5 1 3 2 2 4 4 1 3 1 1 4 1 6 7 8 9 10 10 9 7 9 4 4 10 9 10 8 12 13 16 17 17 20 19 15 14 13 11
2 2 4 4 4 3 2 4 3 5 2 4 2 2 2 2 2 2 1 5 6 7 9 8 8 7 9 6 2 3 2 4 8 13 15 15 20 23 24 21 21 17 13 10
3 3 3 2 3 5 7 5 4 3 2 3 5 5 6 6 5 2 1 3 5 6 7 9 8 10 11 6 5 7 5 2 4 4 5 10 10 10 15 22 17 15 13 13
3 2 0 5 1 1 6 1 1 3 5 3 5 6 5 6 5 3 1 2 3 4 6 7 7 11 13 11 5 8 4 6 9 14 20 22 12 10 15 11 15 18 14 13
4 3 2 3 4 5 6 5 4 4 5 6 8 7 5 4 4 4 1 1 3 4 5 5 6 10 14 14 13 9 6 8 12 15 15 13 14 11 11 13 12 12 12 13
1 8 5 3 3 2 7 8 8 7 8 8 7 6 5 4 4 3 3 2 3 5 6 7 8 9 12 15 16 14 10 9 12 13 11 10 9 11 11 11 12 11 9 9
6 6 5 5 8 6 6 13 12 12 11 10 10 8 6 4 5 6 5 4 3 5 5 6 8 10 10 14 17 17 14 12 14 16 14 13 12 13 12 13 14 12 10 9
Wind_Direction
80 181 197 172 197 73 133 146 139 123 164 215 161 174 156 161 205 237 241 208 208 214 200 199 195 192 185 188 193 196 194 192 180 171 163 161 165 172 175 179 181 178 176 139
159 199 182 146 145 142 157 147 138 163 158 235 194 212 200 191 182 207 200 208 212 211 198 197 194 191 194 187 190 198 201 196 191 185 178 169 166 183 185 187 194 202 203 207
179 173 166 169 161 156 181 237 167 121 145 146 245 233 192 206 242 210 218 215 226 209 205 196 194 193 193 193 190 196 198 186 185 183 183 176 174 174 193 193 187 191 201 207
182 133 164 174 188 195 211 208 162 152 184 312 248 276 215 202 210 231 214 219 221 215 214 201 196 195 195 196 193 196 194 193 191 187 189 185 182 175 180 193 180 187 201 202
145 175 174 189 207 189 136 151 168 202 100 293 202 222 201 188 207 214 220 221 221 219 209 201 203 199 198 190 193 198 198 196 193 195 193 192 193 191 185 186 188 195 203 199
253 155 206 214 152 197 140 109 88 78 282 250 144 230 242 187 219 214 219 212 213 215 212 212 203 196 194 191 191 196 201 202 202 202 203 204 202 196 188 190 195 194 202 205
230 217 158 166 111 149 177 169 218 237 225 256 149 207 265 290 233 218 209 208 211 205 207 204 191 193 193 191 192 195 201 208 208 208 211 209 212 213 207 201 201 199 202 204
235 194 184 172 202 190 197 203 197 259 226 133 175 241 142 320 293 233 223 204 197 198 202 198 197 197 197 194 194 194 198 203 205 206 213 215 214 212 216 214 206 208 214 217
194 209 144 177 147 172 168 201 125 126 264 271 184 243 255 5 5 194 194 187 195 203 195 197 199 202 199 198 198 199 198 202 204 209 209 216 218 218 222 226 223 223 223 223
225 182 114 137 138 95 209 155 191 207 238 239 228 272 298 330 335 301 206 200 198 189 196 197 199 204 203 205 204 201 203 205 206 208 211 215 219 225 228 224 234 240 240 222
188 267 85 158 215 186 152 179 151 183 259 270 281 150 342 324 325 294 240 206 197 187 203 198 198 201 205 204 204 205 206 205 209 209 212 216 221 222 230 234 235 242 245 236
36 222 125 82 37 153 241 188 199 231 198 290 314 6 15 357 359 1 235 210 208 193 215 196 199 202 198 201 202 205 209 210 210 214 214 217 222 224 224 226 233 240 245 243
353 48 139 147 121 112 43 24 188 133 135 215 273 77 22 8 11 19 358 237 224 209 208 185 172 189 200 202 205 205 205 212 216 212 218 222 223 223 225 228 231 239 238 242
219 85 311 190 177 149 129 34 295 258 216 155 256 331 0 356 349 350 348 312 210 186 183 164 175 176 200 206 205 214 216 214 216 218 218 219 223 225 227 230 233 231 233 242
25 104 120 56 49 92 184 77 38 144 110 265 145 293 354 337 338 339 330 311 192 165 127 123 133 109 113 237 222 230 229 223 223 222 223 223 223 225 225 229 232 231 236 241
17 124 84 56 84 53 97 81 32 66 107 111 196 97 3 359 6 10 6 358 198 177 151 149 152 199 294 293 272 255 245 234 230 228 232 228 222 222 224 228 228 228 229 234
46 141 188 170 5 338 201 75 85 28 54 354 24 51 15 8 13 6 9 22 29 105 190 185 178 193 214 252 273 273 265 248 239 233 239 235 224 225 220 220 219 224 228 230
136 113 186 123 202 228 68 75 69 89 352 108 138 108 81 28 38 26 24 19 17 15 21 38 41 342 291 284 274 266 258 238 240 239 234 226 228 223 213 207 207 209 215 224
3 141 123 227 211 333 183 195 196 210 171 158 14 156 162 258 285 66 18 19 17 11 10 11 1 314 282 276 246 243 229 217 212 211 219 225 219 201 207 199 188 195 199 207
71 69 256 162 238 243 71 155 138 162 238 166 126 65 158 230 281 64 355 18 10 11 9 4 5 314 318 304 236 227 212 204 193 202 200 197 189 190 185 191 205 211 208 217
135 93 233 191 235 275 200 158 154 217 89 126 77 74 145 213 341 85 347 8 14 5 359 2 10 7 356 358 21 106 137 154 213 222 215 224 217 219 203 194 194 185 179 182
200 187 172 163 200 247 155 136 224 73 134 134 114 119 110 121 149 181 46 20 4 8 11 8 17 24 22 23 166 159 140 144 234 247 254 258 203 157 168 162 164 150 161 152
213 231 230 219 146 75 186 254 204 169 135 125 118 137 136 145 166 184 261 41 37 22 16 20 27 40 42 47 94 124 91 95 97 116 110 121 114 142 148 161 154 153 137 134
203 172 220 206 172 218 215 213 189 170 135 132 129 141 151 143 144 150 205 339 34 43 43 41 52 56 53 57 68 75 86 116 127 118 121 140 148 158 147 151 143 139 148 151
93 158 178 233 197 226 231 215 175 158 149 137 131 137 137 143 140 142 135 96 40 40 54 65 70 65 60 72 72 73 86 111 115 107 111 121 127 121 123 125 124 127 125 137
191 171 190 223 186 185 191 193 182 168 169 162 144 142 148 157 149 145 133 122 91 80 72 75 88 80 75 76 78 76 81 92 105 101 101 109 113 113 116 120 113 112 126 134